Home   Weather   Kakata   Past weeks

Flag for Liberia Past Weather in Kakata, Liberia — Yesterday and Last 2 Weeks

Now
81 °F

Partly sunny.


Feels Like: 86 °F
Forecast: 76 / 89 °F
Wind: No wind

Location: Roberts Field

Current Time: Apr 29, 2017 at 11:38:33 am

Latest Report: Apr 29, 2017 at 11:00 am


Visibility: N/A

Pressure: 29.92 "Hg

Humidity: 84%

Dew Point: 75 °F

Location of KakataLocation

Past Weather in Kakata — Graph

°F

Kakata Temperature Yesterday

Maximum temperature yesterday: 91 °F (at 1:30 pm)
Minimum temperature yesterday: 77 °F (at 4:00 am)
Average temperature yesterday: 84 °F

High & Low Weather Summary for the Past Weeks

 TemperatureHumidityPressure
High93 °F (Apr 14, 1:30 pm)100% (Apr 21, 5:00 am)29.95 "Hg (Apr 21, 5:00 am)
Low73 °F (Apr 20, 5:30 am)59% (Apr 14, 1:30 pm)29.74 "Hg (Apr 16, 4:00 pm)
Average83 °F84%29.84 "Hg
* Reported Apr 14 10:00 am — Apr 29 10:30 am, Kakata, Weather by CustomWeather, © 2017

Note: Actual official high and low records may vary slightly from our data, if they occured in-between our weather recording intervals... More about our weather records

Advertising

Kakata Weather History for the Previous 24 Hours

Scroll right to see more
 ConditionsComfort  
Time TempWeatherWind HumidityBarometerVisibility
10:30 am
Sat, Apr 29
79 °FPartly sunny.No wind89%29.95 "HgN/A
10:00 am77 °FPartly sunny.3 mph94%29.95 "HgN/A
9:30 am75 °FPartly sunny.3 mph94%29.95 "HgN/A
9:00 am75 °FPartly sunny.No wind94%29.92 "HgN/A
8:30 am75 °FPartly sunny.No wind94%29.92 "HgN/A
8:00 am73 °FPartly sunny.No wind100%29.92 "HgN/A
7:30 am73 °FPartly sunny.No wind94%29.89 "HgN/A
7:00 am73 °FPassing clouds.3 mph94%29.89 "HgN/A
6:30 am73 °FPassing clouds.3 mph94%29.89 "HgN/A
6:00 am73 °FPassing clouds.No wind94%29.86 "HgN/A
5:30 am73 °FPassing clouds.No wind94%29.86 "HgN/A
1:00 am73 °FThunderstorms. Passing clouds.3 mph94%29.92 "Hg6 mi
12:00 am75 °FThunderstorms. Partly cloudy.17 mph94%29.95 "Hg4 mi
11:30 pm
Fri, Apr 28
82 °FThunderstorms. Passing clouds.7 mph89%29.89 "HgN/A
11:00 pm82 °FThunderstorms. Passing clouds.3 mph89%29.92 "HgN/A
10:30 pm81 °FThunderstorms. Passing clouds.No wind94%29.92 "HgN/A
10:00 pm81 °FPassing clouds.No wind94%29.92 "HgN/A
9:30 pm81 °FPassing clouds.No wind94%29.86 "HgN/A
9:00 pm82 °FPassing clouds.No wind84%29.86 "HgN/A
8:30 pm82 °FPassing clouds.No wind89%29.86 "HgN/A
8:00 pm82 °FPassing clouds.No wind89%29.86 "HgN/A
7:30 pm82 °FScattered clouds.No wind84%29.83 "HgN/A
7:00 pm84 °FScattered clouds.5 mph79%29.83 "HgN/A
6:30 pm84 °FPartly sunny.5 mph84%29.80 "HgN/A
6:00 pm84 °FPartly sunny.9 mph84%29.80 "HgN/A
5:30 pm86 °FScattered clouds.7 mph79%29.80 "HgN/A
5:00 pm88 °FThunderstorms. Scattered clouds.5 mph75%29.80 "HgN/A
4:30 pm88 °FThunderstorms. Partly sunny.N/A70%29.80 "HgN/A
4:00 pm90 °FThunderstorms. Partly sunny.N/A67%29.80 "HgN/A
3:30 pm90 °FThunderstorms. Partly sunny.9 mph71%29.80 "HgN/A
3:00 pm90 °FPartly sunny.10 mph71%29.80 "HgN/A
2:30 pm90 °FScattered clouds.9 mph67%29.83 "HgN/A
2:00 pm88 °FPartly sunny.10 mph75%29.83 "HgN/A
1:30 pm91 °FPartly sunny.12 mph67%29.86 "HgN/A
1:00 pm90 °FPartly sunny.9 mph67%29.86 "HgN/A
12:00 pm90 °FPartly sunny.10 mph71%29.89 "HgN/A
11:30 am90 °FPartly sunny.9 mph71%29.89 "HgN/A
11:00 am90 °FPartly sunny.3 mph71%29.89 "HgN/A
Weather by CustomWeather, © 2017

See weather overviewHow to use our weather pages